This is the latest recevied weather packets stored in our database for station/object KB9MLJ. If no packets are shown the sender has not sent any weather packets the latest 1 day(s).
| Time | Temp. | Humidity | Pressure | Rain* | Wind** | Luminosity | Snow |
|---|---|---|---|---|---|---|---|
| 1777994154 | 8.33° C | 91% | 1009.2 hPa | 0 mm | 2.68 m/s, 358° | 281 W/m² | - |
| 1777993852 | 8.33° C | 91% | 1009.5 hPa | 0 mm | 3.58 m/s, 338° | 223 W/m² | - |
| 1777993548 | 7.78° C | 91% | 1009.2 hPa | 0 mm | 2.24 m/s, 344° | 188 W/m² | - |
| 1777993244 | 7.78° C | 91% | 1009.2 hPa | 0 mm | 1.79 m/s, 8° | 181 W/m² | - |
| 1777992940 | 7.78° C | 90% | 1009.2 hPa | 0 mm | 3.13 m/s, 348° | 182 W/m² | - |
| 1777992639 | 7.78° C | 90% | 1009.5 hPa | 0 mm | 2.68 m/s, 341° | 170 W/m² | - |
| 1777992336 | 7.78° C | 90% | 1009.2 hPa | 0 mm | 0.89 m/s, 346° | 116 W/m² | - |
| 1777992033 | 7.78° C | 89% | 1009.2 hPa | 0 mm | 1.79 m/s, 348° | 115 W/m² | - |
| 1777991731 | 7.78° C | 88% | 1009.2 hPa | 0 mm | 2.24 m/s, 359° | 127 W/m² | - |
| 1777991428 | 7.78° C | 88% | 1009.2 hPa | 0 mm | 3.58 m/s, 1° | 115 W/m² | - |
| 1777991125 | 7.78° C | 88% | 1009.2 hPa | 0 mm | 2.24 m/s, 1° | 102 W/m² | - |
| 1777990822 | 8.33° C | 88% | 1009.2 hPa | 0 mm | 1.79 m/s, 355° | 87 W/m² | - |
| 1777990520 | 7.78° C | 87% | 1009.5 hPa | 0 mm | 3.58 m/s, 355° | 77 W/m² | - |
| 1777990216 | 8.33° C | 87% | 1009.5 hPa | 0 mm | 3.13 m/s, 348° | 76 W/m² | - |
| 1777989913 | 8.33° C | 86% | 1009.2 hPa | 0 mm | 3.58 m/s, 6° | 86 W/m² | - |
| 1777989610 | 8.89° C | 86% | 1009.2 hPa | 0.51 mm | 2.68 m/s, 341° | 88 W/m² | - |
| 1777989306 | 8.89° C | 85% | 1009.2 hPa | 0.25 mm | 2.24 m/s, 344° | 99 W/m² | - |
| 1777989003 | 8.89° C | 84% | 1009.2 hPa | 0.25 mm | 2.24 m/s, 339° | 62 W/m² | - |
| 1777988699 | 8.89° C | 83% | 1009.2 hPa | 0.25 mm | 3.13 m/s, 8° | 69 W/m² | - |
| 1777988395 | 8.89° C | 82% | 1009.5 hPa | 0 mm | 3.58 m/s, 4° | 76 W/m² | - |
| 1777988093 | 9.44° C | 80% | 1009.2 hPa | 0 mm | 2.68 m/s, 342° | 60 W/m² | - |
| 1777987788 | 9.44° C | 80% | 1009.9 hPa | 0 mm | 3.13 m/s, 339° | 54 W/m² | - |
| 1777987485 | 9.44° C | 78% | 1009.9 hPa | 0 mm | 2.68 m/s, 344° | 50 W/m² | - |
| 1777987183 | 10° C | 79% | 1009.9 hPa | 0 mm | 2.68 m/s, 327° | 50 W/m² | - |
| 1777986879 | 10° C | 80% | 1009.9 hPa | 0 mm | 2.24 m/s, 277° | 28 W/m² | - |
* Rain latest hour (hover to see other rain measurements)
** Current wind speed in m/s (hover to see current wind gust speed)